Flag for Gambia Weather past 2 weeks in Serekunda, Gambia

Now
77 °F

Passing clouds.


Feels Like: 78 °F
Forecast: 78 / 84 °F
Wind: No wind

Location: Banjul / Yundum

Current Time: Aug 31, 2014 at 6:37:32 AM

Latest Report: Aug 31, 2014 at 6:00 AM


Visibility: 6 mi

Pressure: 29.89 "Hg

Humidity: 100%

Dew point: 77 °F

Location of SerekundaLocation

Historic Weather in Serekunda — Graph

°F

Serekunda temperature yesterday

Maximum temperature yesterday: 90 °F (at 3:00 PM)
Minimum temperature yesterday: 75 °F (at 6:00 AM)
Average temperature yesterday: 81 °F

Past Weeks' High & Low Weather Summary

 TemperatureHumidityPressure
High90 °F (Aug 27, 3:00 PM)100% (Aug 17, 6:00 AM)29.98 "Hg (Aug 17, 6:00 AM)
Low72 °F (Aug 27, 8:00 PM)26% (Aug 21, 9:00 AM)29.77 "Hg (Aug 17, 5:00 PM)
Average80 °F88%29.88 "Hg
* Reported Aug 16 5:00 AM — Aug 31 5:00 AM, Serekunda, Weather by CustomWeather, © 2014

Note: Actual official high and low records may vary slightly from our data, if they occured in-between our weather recording intervals... More about our weather records

Advertising

Serekunda weather history for previous 24 hours

 ConditionsComfort  
Time TempWeatherWind HumidityBarometerVisibility
5:00 AM
Aug 31
77 °FPassing clouds.No wind100%29.89 "Hg6 mi
4:00 AM79 °FClear.No wind94%29.86 "Hg6 mi
3:00 AM79 °FWarm.No wind94%29.89 "Hg6 mi
2:00 AM79 °FPassing clouds.No wind94%29.89 "Hg6 mi
1:00 AM79 °FPassing clouds.No wind94%29.92 "HgN/A
12:00 AM79 °FPassing clouds.No wind94%29.92 "HgN/A
11:00 PM
Aug 30
79 °FPassing clouds.No wind94%29.89 "HgN/A
10:00 PM79 °FPassing clouds.No wind94%29.89 "HgN/A
9:00 PM81 °FPassing clouds.2 mph89%29.86 "HgN/A
8:00 PM81 °FPassing clouds.6 mph89%29.89 "HgN/A
7:00 PM84 °FScattered clouds.12 mph70%29.86 "HgN/A
6:00 PM88 °FScattered clouds.12 mph70%29.86 "HgN/A
5:00 PM88 °FScattered clouds.9 mph70%29.86 "HgN/A
4:00 PM88 °FScattered clouds.5 mph70%29.89 "HgN/A
3:00 PM90 °FPartly sunny.12 mph67%29.89 "HgN/A
2:00 PM88 °FPartly sunny.No wind70%29.92 "HgN/A
1:00 PM86 °FScattered clouds.9 mph75%29.92 "HgN/A
12:00 PM86 °FScattered clouds.No wind75%29.92 "HgN/A
11:00 AM84 °FScattered clouds.5 mph79%29.92 "HgN/A
10:00 AM84 °FScattered clouds.7 mph79%29.92 "HgN/A
9:00 AM79 °FScattered clouds.No wind94%29.92 "HgN/A
8:00 AM77 °FScattered clouds.6 mph94%29.89 "HgN/A
7:00 AM75 °FScattered clouds.No wind100%29.89 "HgN/A
6:00 AM75 °FPassing clouds.No wind100%29.89 "HgN/A
Weather by CustomWeather, © 2014

See weather overviewHow to use our weather pages